Simultaneous Nadir Overpasses (SNOs) Predictions

Prediction of SNOs between METOP-A and NOAA-19 Satellite Orbit:

Table of predicted SNOs for the next 14.0 days since TLE Epoch: 4/15/2014
Index Date (METOP-A) Time (METOP-A) Lat,Lon (METOP-A) SZA (METOP-A ) Date (NOAA-19) Time (NOAA-19) Lat,Lon (NOAA-19) SZA (NOAA-19 ) Distance(km) Time Diff (sec)
1 04/18/2014 00:45:58 74.35, 163.72 63.59 04/18/2014 00:44:48 74.38, 161.95 63.68 53.07 70
2 04/18/2014 01:36:47 -74.01, -29.82 116.75 04/18/2014 01:35:44 -74.01, -29.83 116.74 0.53 63
3 04/18/2014 02:27:27 73.99, 137.47 63.23 04/18/2014 02:26:44 74.01, 137.41 63.25 2.63 43
4 04/18/2014 03:18:09 -73.99, -55.20 116.79 04/18/2014 03:17:47 -73.97, -55.25 116.81 2.97 22
5 04/18/2014 04:08:49 73.98, 112.09 63.19 04/18/2014 04:08:47 73.97, 111.99 63.19 2.86 2
6 04/18/2014 04:59:32 -73.93, -80.71 116.87 04/18/2014 04:59:50 -73.93, -80.67 116.87 1.24 18
7 04/18/2014 05:50:12 73.91, 86.58 63.10 04/18/2014 05:50:50 73.94, 86.57 63.13 3.25 38
8 04/18/2014 06:40:54 -73.91,-106.09 116.91 04/18/2014 06:41:53 -73.90,-106.10 116.93 1.39 59
9 04/18/2014 07:31:38 73.69, 60.73 62.88 04/18/2014 07:32:50 73.75, 61.51 62.91 25.34 72
10 04/28/2014 06:33:53 -74.38,-103.15 119.80 04/28/2014 06:32:43 -74.38,-104.91 119.75 52.87 70
11 04/28/2014 07:24:40 74.02, 63.27 59.85 04/28/2014 07:23:38 74.03, 63.24 59.87 1.24 62
12 04/28/2014 08:15:22 -74.03,-129.40 120.17 04/28/2014 08:14:39 -74.01,-129.46 120.17 2.38 43
13 04/28/2014 09:06:02 74.01, 37.89 59.81 04/28/2014 09:05:41 74.00, 37.82 59.81 2.35 21
14 04/28/2014 09:56:45 -73.96,-154.90 120.25 04/28/2014 09:56:42 -73.98,-154.88 120.23 2.09 3
15 04/28/2014 10:47:25 73.94, 12.38 59.72 04/28/2014 10:47:44 73.96, 12.39 59.75 2.61 19
16 04/28/2014 11:38:07 -73.94, 179.71 120.29 04/28/2014 11:38:45 -73.94, 179.69 120.29 0.77 38
17 04/28/2014 12:28:47 73.92, -13.00 59.69 04/28/2014 12:29:47 73.93, -13.03 59.69 1.25 60
18 04/28/2014 13:19:33 -73.72, 153.85 120.51 04/28/2014 13:20:45 -73.76, 154.62 120.51 24.23 72




NCC Satellite Simultaneous Nadir Overpasses (
